Regional Weather Roundup
Issued by NWS State College, PA

Home | Current Version | Previous Version | Graphics & Text | Print | Product List | Glossary On
Versions: 1 2 3 4 5 6 7 8 9 10 11 12 13 14 15 16 17 18 19 20 21 22 23 24 25 26 27 28 29 30 31 32 33 34 35 36 37 38 39 40 41 42 43 44 45 46 47 48 49 50
000
ASUS41 KCTP 262110
RWRCTP

REGIONAL WEATHER ROUNDUP
NATIONAL WEATHER SERVICE STATE COLLEGE PA
500 PM EDT THU MAY 26 2016

Note: "fair" indicates few or no clouds below 12,000 feet with no
significant weather and/or obstructions to visibility.

* = STATION THAT DOES NOT REPORT PRECIPITATION /E.G. RAIN...SNOW...ETC/
    THUNDER OR FOG.

PAZ002>004-007>009-013>016-020>023-029>032-262200-
WESTERN PENNSYLVANIA

CITY           SKY/WX    TMP DP  RH WIND       PRES   REMARKS
ERIE           SUNNY     78  63  59 VRB3      29.98F
MEADVILLE      CLOUDY    77  61  57 SW13      30.02F
FRANKLIN*      CLOUDY    81  63  54 S9G16     30.05F
NEW CASTLE     FAIR      81  64  56 SW9       30.02F
BEAVER COUNTY  PTSUNNY   79  63  57 SW8G24    30.03F
BUTLER*        MOSUNNY   81  63  54 S14       30.06F
PITTSBURGH INT PTSUNNY   80  60  50 SW12      30.03F
PITTSBURGH     PTSUNNY   80  61  52 SW12      30.04F
INDIANA*       SUNNY     81  63  54 SW13G18   30.09F
LATROBE        PTSUNNY   81  63  54 SW9       30.06F
WASHINGTON CO* CLOUDY    79  64  61 SW8G16    30.05F
$$

PAZ004>006-010>012-017>019-024>028-033>037-041-042-045-046-049>053-262200-
CENTRAL PENNSYLVANIA

CITY           SKY/WX    TMP DP  RH WIND       PRES   REMARKS
BRADFORD       CLOUDY    78  57  48 SW9G21    30.06F
DUBOIS         MOSUNNY   80  61  52 SW8G20    30.05F
CLEARFIELD     MOSUNNY   81  59  47 SW12      30.05F
JOHNSTOWN      MOSUNNY   77  57  50 W8        30.10F
ALTOONA        MOSUNNY   79  60  52 S5        30.08F
STATE COLLEGE  PTSUNNY   81  63  54 CALM      30.06F
WILLIAMSPORT   CLOUDY    83  59  44 MISG      30.01F
SELINSGROVE    PTSUNNY   84  59  42 S3        30.03F
FT INDIANTOWN  PTSUNNY   85  60  43 SW6       30.02F
CAPITAL CITY   PTSUNNY   86  57  37 SW5       30.02S
HARRISBURG     CLOUDY    85  58  39 W5        30.01S
YORK           MOSUNNY   85  61  44 SW5       30.03F
$$

PAZ038>040-043-044-047-048-054-055-060>062-067>071-262200-
EASTERN PENNSYLVANIA

CITY           SKY/WX    TMP DP  RH WIND       PRES   REMARKS
SCRANTON       MOSUNNY   85  56  37 W10       30.04S
MOUNT POCONO   MOSUNNY   73  51  46 S12       30.10F
ALLENTOWN      MOSUNNY   89  55  31 S10       30.03F
QUAKERTOWN*    PTCLDY    88  54  31 S10       30.05F
READING        MOSUNNY   87  56  34 S6        30.02F
LANCASTER      SUNNY     84  63  49 SE10      30.02F
COATESVILLE    CLEAR     84  57  39 VRB6      30.07F
POTTSTOWN      SUNNY     86  56  35 S7        30.05F
BLUE BELL      SUNNY     86  57  37 SW3       30.04F
DOYLESTOWN     MOSUNNY   87  48  25 SW7       30.04F
WILLOW GROVE   NOT AVBL
NORTH PHILA    SUNNY     89  54  30 SW9       30.05F
PHILADELPHIA   MOSUNNY   88  54  31 SW8       30.04F
$$




USA.gov is the U.S. government's official web portal to all federal, state and local government web resources and services.